TimeEDT,TemperatureF,Dew PointF,Humidity,Sea Level PressureIn,VisibilityMPH,Wind Direction,Wind SpeedMPH,Gust SpeedMPH,PrecipitationIn,Events,Conditions,WindDirDegrees,DateUTC
12:54 AM,71.1,69.1,93,29.63,-9999.0,SW,4.6,-,N/A,,Unknown,230,2013-07-24 04:54:00
1:54 AM,71.1,69.1,93,29.62,-9999.0,WSW,4.6,-,N/A,,Unknown,240,2013-07-24 05:54:00
2:54 AM,71.1,69.1,93,29.62,-9999.0,WSW,4.6,-,N/A,,Unknown,250,2013-07-24 06:54:00
3:54 AM,71.1,69.1,93,29.62,-9999.0,West,6.9,-,N/A,,Unknown,270,2013-07-24 07:54:00
4:54 AM,71.1,69.1,93,29.63,-9999.0,West,6.9,-,N/A,,Unknown,260,2013-07-24 08:54:00
5:54 AM,71.1,69.1,93,29.63,-9999.0,West,6.9,-,N/A,,Unknown,280,2013-07-24 09:54:00
6:54 AM,71.1,70.0,96,29.65,-9999.0,West,5.8,-,N/A,,Unknown,270,2013-07-24 10:54:00
7:54 AM,73.0,71.1,93,29.66,-9999.0,West,3.5,-,N/A,,Unknown,270,2013-07-24 11:54:00
8:54 AM,77.0,72.0,84,29.68,-9999.0,West,4.6,-,N/A,,Unknown,270,2013-07-24 12:54:00
9:54 AM,80.1,70.0,71,29.70,-9999.0,West,5.8,-,N/A,,Unknown,260,2013-07-24 13:54:00
10:54 AM,82.0,69.1,65,29.71,-9999.0,WNW,5.8,-,N/A,,Unknown,290,2013-07-24 14:54:00
11:54 AM,82.9,69.1,63,29.73,-9999.0,West,10.4,-,N/A,,Unknown,280,2013-07-24 15:54:00
12:54 PM,82.9,68.0,60,29.73,-9999.0,West,10.4,-,N/A,,Unknown,260,2013-07-24 16:54:00
1:54 PM,82.0,66.9,60,29.73,-9999.0,WNW,9.2,-,N/A,,Unknown,300,2013-07-24 17:54:00
2:54 PM,81.0,68.0,65,29.75,-9999.0,West,11.5,17.3,N/A,,Unknown,280,2013-07-24 18:54:00
3:54 PM,82.9,66.0,56,29.76,-9999.0,WNW,10.4,-,N/A,,Unknown,290,2013-07-24 19:54:00
4:54 PM,79.0,64.0,60,29.77,-9999.0,WNW,8.1,-,N/A,,Unknown,290,2013-07-24 20:54:00
5:54 PM,81.0,64.0,56,29.78,-9999.0,WNW,9.2,-,N/A,,Unknown,290,2013-07-24 21:54:00
6:54 PM,78.1,62.1,58,29.82,-9999.0,NW,10.4,16.1,N/A,,Unknown,310,2013-07-24 22:54:00
7:54 PM,73.9,61.0,64,29.85,-9999.0,NW,6.9,-,N/A,,Unknown,320,2013-07-24 23:54:00
8:54 PM,73.9,62.1,66,29.88,-9999.0,North,6.9,-,N/A,,Unknown,360,2013-07-25 00:54:00
9:54 PM,73.0,59.0,61,29.91,-9999.0,NNE,10.4,-,N/A,,Unknown,20,2013-07-25 01:54:00
10:54 PM,70.0,57.0,63,29.94,-9999.0,North,13.8,20.7,N/A,,Unknown,360,2013-07-25 02:54:00
11:54 PM,66.9,54.0,63,29.96,-9999.0,North,12.7,20.7,N/A,,Unknown,350,2013-07-25 03:54:00